CZ-4B DEB

Satellite information

Favourite Embed

Satellite Type and Status

DEBRISIN ORBIT

Key statistics

Satellite CZ-4B DEB at a glance.

Uptime

4274

Days in orbit

Revolutions

≈ 14.5

Per day

Orbit

LEO

Low Earth Orbit

Inclination

75.0

Latest

Satellite identification and parameters

Extended collection of information and parameters for CZ-4B DEB.

Object identification

Identified? True

Debris? True

Object name: CZ-4B DEB

International designator: 2013-057D

Object number (NORAD): 40531

Object ID (CCSDS): 40531

Country: PEOPLES REPUBLIC OF CHINA (PRC)

Current information (Y/N): Y

RCS size: SMALL

Orbital parameters

Period: 99.012 minutes

Inclination: 74.9706 deg

SMA: 7089.535 km

Apoapsis: 846.597 km

Periapsis: 576.202 km

RAAN: 130.1535 deg

Eccentricy: 0.01907

Argument of periapsis: 316.9816 deg

Mean anomaly: 41.6572 deg

Mean motion: 14.54374212 rev/day

Mean motion (dot): 0.00003489 rev/day2

B* drag term: 0.00064847 1/REarth

Two-line elements (TLE)

Creation date: July 8, 2025, 2:27 a.m.

Reference frame: TEME

Reference center: EARTH

Epoch: July 7, 2025, 7:41 p.m. UTC

TLE line 0: 0 CZ-4B DEB

TLE line 1: 1 40531U 13057D 25188.82071051 .00003489 00000-0 64847-3 0 9993

TLE line 2: 2 40531 74.9706 130.1535 0190700 316.9816 41.6572 14.54374212541689

Live tracking on map

Real-time ground track for satellite CZ-4B DEB.

In-orbit conjunctions

A list of the most updated potential collisions computed for object CZ-4B DEB.

Target Orbit TCA Probability of collision Miss distance Type
CZ-6A DEB LEO 2025-06-28 10:16:45 0.0001288126 518.0 (m) DEBRIS
CZ-6A DEB LEO 2024-10-24 19:39:37 0.0003252114 375.0 (m) DEBRIS

Associated space launch

CZ-4B DEB was lifted into orbit during the mission ‘Long March 4B | Shijian 16’, on board a Long March 4B space rocket.

The launch took place on Oct. 25, 2013, 3:50 a.m. from Launch Area 4 (SLS-2 / 603).

For more information about the launch, click the button.

Launch to space Long March 4B | Shijian 16
Long March 4B | Shijian 16

Agency: N/A

Status: Launch Successful

Launch date: Oct. 25, 2013, 3:50 a.m. UTC

Rocket: Long March 4B

Launch pad: Launch Area 4 (SLS-2 / 603)

Location: Jiuquan Satellite Launch Center, People's Republic of China

...

Latest news about this satellite

There are no fresh news available about this satellite. Check back as we update our databases every day.


Newsletter sign-up

Weekly statistics, charts and insights to help you stay on top of the space industry.